DELTA 1 DEB, 21291

Orbit data source: Space-Track

DELTA 1 DEB, 21291 is space debris in SSO originally from a launch on Thu, 12 Jun 1975 UTC launched from the Air Force Western Test Range (AFWTR). Debris objects in space refer to the collection of defunct objects orbiting the Earth. Examples of debris include non-operational satellites, rocket bodies, and fragments generated from explosions, collisions, or faulty payload assembly.

Loading next visibility...
DELTA 1 DEB details
Identifier
21291, 1975-052AC
Orbit
SSO
Last TLE update5 hours ago
Origin
Flag of USGSFC (US)
ManufacturerUnknown
MissionSpacecraft
Bus & MotorUnknown
MassUnknown
Launch date (UTC)
1975-06-12 (50 years ago)
Launch vehicleUnknown
Launch site
Air Force Western Test Range (AFWTR)
Object type
Payload
Rocket body
Debris
Shape & HBRUnknown
Radar Cross SectionSmall (<0.1 m²)

Expand to show TLE details & history

TLE from 5 hours ago
0 DELTA 1 DEB
1 21291U 75052AC  24361.31614711  .00000786  00000-0  71429-3 0  9991
2 21291  99.8211 129.2159 0137615  14.3753  54.1215 13.82678762693299
Epoch: 2024-12-26T07:35Z
Definitive object data (Epoch: 2024-12-26T07:35:15.11Z)
Latitude67.70129°
Longitude-104.72228°
Altitude907.808 km
Speed7.434 km/s
True Right ascension06h 57m 33s
True Declination67° 34' 58"
Sunlit
Object was in full shadow at TLE epoch
Visualization TLE readout
Latitude79.25573°
Longitude165.50332°
Altitude949.982 km
Speed7.392 km/s
Apparent Right ascension00h 25m 39s
Apparent Declination26° 25' 49"
Sunlit
Object is in daylight
Visualization observer readout
Local Sidereal Time12:16:31
Azimuth357.766° N
Elevation-23.619°
Doppler factor1
Orbital elements
Apogee altitude1,052.533 km
Perigee altitude850.795 km
Semi-major axis7,329.801 km
Eccentricity0.0137615
Inclination99.8211°
RAAN129.2159°
Arg. of periapsis14.3753°
True anomaly55.41214°
Mean anomaly54.1215°
Eccentric anomaly54.76553°
Mean motion3.45864 °/min
BSTAR0.00071429
Orbital period104.09 mins
Loading maneuver chart data...
Loading historical data...
Loading historical data...
Loading historical data...
Loading historical data...
Loading historical data...
Loading historical data...
Loading historical data...

DELTA 1 DEB Visibility forecast

Observer location: undefined°, undefined

Span
Click to sort rows by Start time (UTC) header in descending order
Start Az.
Max El. time (UTC)
Max El. Az.
Max El.
End time (UTC)
End Az.
4 mins2024-12-26 20:03:55.926Z73.064° E2024-12-26 20:05:55.926Z92.99° ESE12.673°2024-12-26 20:07:55.926Z112.253° ESE
11 mins2024-12-26 21:43:55.926Z15.253° NNE2024-12-26 21:48:55.926Z35.995° NE44.982°2024-12-26 21:54:55.926Z196.442° SSW
5 mins2024-12-26 23:28:55.926Z323.588° NNW2024-12-26 23:30:55.926Z302.096° NW15.084°2024-12-26 23:33:55.926Z271.976° WNW
7 mins2024-12-27 07:43:55.926Z110.523° ESE2024-12-27 07:46:55.926Z63.032° ENE26.665°2024-12-27 07:50:55.926Z9.842° NNE
8 mins2024-12-27 09:25:55.926Z205.346° SW2024-12-27 09:29:55.926Z272.883° WNW29.624°2024-12-27 09:33:55.926Z324.13° NNW
|